DW0269 Weather Reports


Display with metric or nautical units.
time (UTC)temp
F
wind
direction
speed
MPH
gust
MPH
rain 1hr
in
rain 24hr
in
rain mn
in
humidity
%
barometer
mb
20260508072759 64 32 5.0 14.0 0.00 0.00 0.00 90 951.9
20260508072258 64 34 5.0 14.0 0.00 0.00 0.00 90 951.9
20260508071757 65 31 5.0 14.0 0.00 0.00 0.00 90 951.5
20260508071256 65 34 5.0 14.0 0.00 0.00 0.00 90 951.8
20260508070239 64 42 6.0 14.0 0.00 0.00 0.00 90 951.7
20260508065738 64 39 6.0 14.0 0.00 0.00 0.00 90 951.7
20260508065237 64 41 5.0 14.0 0.00 0.00 0.00 89 951.8
20260508064736 64 41 4.0 14.0 0.00 0.00 0.00 89 951.9
20260508064235 64 38 5.0 14.0 0.00 0.00 0.00 89 951.6
20260508062702 64 36 5.0 14.0 0.00 0.00 0.00 88 951.4
20260508062201 64 35 5.0 14.0 0.00 0.00 0.00 88 951.5
20260508061700 64 32 6.0 14.0 0.00 0.00 0.00 89 951.4
20260508061159 64 38 4.0 14.0 0.00 0.00 0.00 89 951.3
20260508060658 64 31 5.0 14.0 0.00 0.00 0.00 89 951.1
20260508060157 64 35 5.0 14.0 0.00 0.00 0.00 89 951.1
20260508055656 64 31 7.0 14.0 0.00 0.00 0.00 89 951.0
20260508055155 64 34 6.0 14.0 0.00 0.00 0.00 89 951.0
20260508054653 65 27 4.0 14.0 0.00 0.00 0.00 88 950.9
20260508054152 64 25 5.0 14.0 0.00 0.00 0.00 88 950.8
20260508053651 64 32 5.0 14.0 0.00 0.00 0.00 87 951.0
20260508052634 64 29 5.0 14.0 0.00 0.00 0.00 88 950.8
20260508052133 64 37 5.0 14.0 0.00 0.00 0.00 88 950.9
20260508051632 64 35 4.0 14.0 0.00 0.00 0.00 88 950.8
20260508051131 64 33 5.0 14.0 0.00 0.00 0.00 88 950.8
20260508050630 65 35 5.0 14.0 0.00 0.00 0.00 88 950.6
20260508050129 65 29 3.0 14.0 0.00 0.00 0.00 87 950.6
20260508044556 65 27 5.0 14.0 0.00 0.00 0.00 87 950.5
20260508044055 65 21 6.0 14.0 0.00 0.00 0.00 86 950.5
20260508043554 65 22 5.0 14.0 0.00 0.00 0.00 87 950.2
20260508043053 66 23 5.0 14.0 0.00 0.00 0.00 86 950.2
20260508042551 66 29 4.0 14.0 0.00 0.00 0.00 85 950.3
20260508041534 66 24 4.0 14.0 0.00 0.00 0.00 85 950.5
20260508041033 67 27 4.0 14.0 0.00 0.00 0.00 84 950.4
20260508040532 67 37 7.0 14.0 0.00 0.00 0.00 84 950.2
20260508035515 68 37 4.0 14.0 0.00 0.00 0.00 83 950.3
20260508035014 68 31 6.0 14.0 0.00 0.00 0.00 83 950.2
20260508034513 68 25 4.0 14.0 0.00 0.00 0.00 82 950.3
20260508034012 68 25 3.0 14.0 0.00 0.00 0.00 83 950.0
20260508033511 69 19 4.0 14.0 0.00 0.00 0.00 82 950.1
20260508033010 69 27 5.0 11.0 0.00 0.00 0.00 81 949.8
20260508032509 69 30 4.0 11.0 0.00 0.00 0.00 83 950.1
20260508032008 69 24 3.0 11.0 0.00 0.00 0.00 82 950.2
20260508031507 69 25 6.0 11.0 0.00 0.00 0.00 80 949.8
20260508031006 69 31 6.0 11.0 0.00 0.00 0.00 81 949.8
20260508025949 70 35 7.0 11.0 0.00 0.00 0.00 81 949.8
20260508025448 70 21 4.0 11.0 0.00 0.00 0.00 81 949.7
20260508024947 70 29 5.0 13.0 0.00 0.00 0.00 79 949.6
20260508023929 71 36 7.0 14.0 0.00 0.00 0.00 78 949.7
20260508023428 71 37 6.0 14.0 0.00 0.00 0.00 78 949.7
20260508022927 72 45 7.0 13.0 0.00 0.00 0.00 77 949.9
20260508022426 72 43 5.0 13.0 0.00 0.00 0.00 77 949.6
20260508021925 72 41 5.0 13.0 0.00 0.00 0.00 77 949.5
20260508021424 72 40 6.0 13.0 0.00 0.00 0.00 75 949.8
20260508020923 72 38 5.0 13.0 0.00 0.00 0.00 74 949.6
20260508020421 73 39 7.0 13.0 0.00 0.00 0.00 75 949.8
20260508015404 73 45 5.0 13.0 0.00 0.00 0.00 76 949.8
20260508014903 73 41 6.0 13.0 0.00 0.00 0.00 77 949.8
20260508014402 74 46 5.0 12.0 0.00 0.00 0.00 79 949.8
20260508013902 74 47 5.0 11.0 0.00 0.00 0.00 77 949.8
20260508013400 75 33 4.0 11.0 0.00 0.00 0.00 78 950.0
20260508012859 75 45 5.0 11.0 0.00 0.00 0.00 78 949.8
20260508011842 75 31 6.0 11.0 0.00 0.00 0.00 77 949.9
20260508010825 75 39 5.0 11.0 0.00 0.00 0.00 77 949.9
20260508010324 75 31 4.0 11.0 0.00 0.00 0.00 76 950.0
20260508005823 75 39 6.0 11.0 0.00 0.00 0.00 75 950.2
20260508005322 76 45 3.0 11.0 0.00 0.00 0.00 77 950.1
20260508004821 76 48 3.0 11.0 0.00 0.00 0.00 77 950.0
20260508004320 76 47 5.0 11.0 0.00 0.00 0.00 76 950.1
20260508003819 76 60 4.0 11.0 0.00 0.00 0.00 76 950.0
20260508003318 76 62 4.0 11.0 0.00 0.00 0.00 75 950.3
20260508002817 76 67 5.0 11.0 0.00 0.00 0.00 73 950.3
20260508002316 76 46 4.0 11.0 0.00 0.00 0.00 73 950.2
20260508001815 77 62 5.0 11.0 0.00 0.00 0.00 72 950.3
20260508001314 77 55 4.0 11.0 0.00 0.00 0.00 72 950.7
20260508000813 77 48 4.0 12.0 0.00 0.00 0.00 73 950.4
20260507235756 76 48 5.0 12.0 0.00 0.00 0.00 71 950.4
20260507234739 76 64 5.0 12.0 0.00 0.00 0.00 70 950.3
20260507234237 76 49 4.0 12.0 0.00 0.00 0.00 71 950.6
20260507233736 77 56 4.0 12.0 0.00 0.00 0.00 70 950.6
20260507233235 77 55 4.0 12.0 0.00 0.00 0.00 70 950.8
20260507232734 76 59 5.0 12.0 0.00 0.00 0.00 70 950.7
20260507232233 76 50 5.0 12.0 0.00 0.00 0.00 69 950.5
20260507231732 77 41 5.0 12.0 0.00 0.00 0.00 67 950.6
20260507230714 77 62 6.0 12.0 0.00 0.00 0.00 68 950.9
20260507230214 76 55 5.0 12.0 0.00 0.00 0.00 66 951.1
20260507225712 77 46 5.0 13.0 0.00 0.00 0.00 68 951.0
20260507225211 76 57 5.0 13.0 0.00 0.00 0.00 70 951.0
20260507224710 76 44 5.0 12.0 0.00 0.00 0.00 67 951.0
20260507223653 77 34 3.0 12.0 0.00 0.00 0.00 64 950.8
20260507223152 77 39 5.0 12.0 0.00 0.00 0.00 61 951.1
20260507222651 77 57 4.0 12.0 0.00 0.00 0.00 69 951.3
20260507222150 77 43 5.0 11.0 0.00 0.00 0.00 66 951.2
20260507221649 77 44 3.0 11.0 0.00 0.00 0.00 67 951.1
20260507221148 76 59 3.0 11.0 0.00 0.00 0.00 70 951.2
20260507220647 76 43 5.0 11.0 0.00 0.00 0.00 65 951.2
20260507220146 76 38 3.0 13.0 0.00 0.00 0.00 69 951.1
20260507215645 76 70 3.0 13.0 0.00 0.00 0.00 70 951.2
20260507215143 76 65 6.0 11.0 0.00 0.00 0.00 69 951.4
20260507214642 76 49 5.0 11.0 0.00 0.00 0.00 66 951.6
20260507214141 76 47 3.0 12.0 0.00 0.00 0.00 68 951.8
20260507213641 76 48 5.0 12.0 0.00 0.00 0.00 66 951.7
20260507213139 76 55 5.0 12.0 0.00 0.00 0.00 69 951.7
20260507212639 76 30 4.0 12.0 0.00 0.00 0.00 66 951.4
20260507212137 77 28 2.0 11.0 0.00 0.00 0.00 67 951.8
20260507211120 76 30 1.0 12.0 0.00 0.00 0.00 70 951.6
20260507210619 76 22 3.0 12.0 0.00 0.00 0.00 67 951.7
20260507205603 76 47 2.0 11.0 0.00 0.00 0.00 70 951.9
20260507204545 76 51 4.0 11.0 0.00 0.00 0.00 66 951.6
20260507204044 76 51 3.0 11.0 0.00 0.00 0.00 65 951.8
20260507203028 76 41 3.0 11.0 0.00 0.00 0.00 66 952.0
20260507202527 76 56 4.0 11.0 0.00 0.00 0.00 60 952.1
20260507202025 76 71 3.0 11.0 0.00 0.00 0.00 65 952.0
20260507201008 76 38 4.0 11.0 0.00 0.00 0.00 61 952.3
20260507200507 76 66 5.0 12.0 0.00 0.00 0.00 61 952.4
20260507200007 76 55 4.0 12.0 0.00 0.00 0.00 63 952.3
20260507195506 76 63 4.0 12.0 0.00 0.00 0.00 62 952.1
20260507195005 76 63 4.0 12.0 0.00 0.00 0.00 66 951.9
20260507194503 75 55 2.0 12.0 0.00 0.00 0.00 68 952.3
20260507194003 75 49 3.0 12.0 0.00 0.00 0.00 66 952.0
20260507193502 74 50 3.0 12.0 0.00 0.00 0.00 65 952.3
20260507193001 74 44 4.0 12.0 0.00 0.00 0.00 67 952.3
20260507192459 74 37 5.0 12.0 0.00 0.00 0.00 63 952.3
20260507191957 74 36 5.0 12.0 0.00 0.00 0.00 62 952.1
20260507191457 74 52 3.0 12.0 0.00 0.00 0.00 66 952.1
20260507190956 74 48 4.0 12.0 0.00 0.00 0.00 63 952.2
20260507190455 74 63 4.0 12.0 0.00 0.00 0.00 64 952.1
20260507185438 73 44 2.0 12.0 0.00 0.00 0.00 70 952.0
20260507184936 73 38 3.0 12.0 0.00 0.00 0.00 66 951.9
20260507183919 73 58 3.0 12.0 0.00 0.00 0.00 70 952.1
20260507183419 73 64 3.0 12.0 0.00 0.00 0.00 70 952.1
20260507182402 72 50 3.0 12.0 0.00 0.00 0.00 71 952.0
20260507181345 71 55 3.0 12.0 0.00 0.00 0.00 73 951.6
20260507180844 71 53 2.0 12.0 0.00 0.00 0.00 75 952.1
20260507180343 71 51 3.0 12.0 0.00 0.00 0.00 76 951.8
20260507175326 70 51 3.0 12.0 0.00 0.00 0.00 76 952.1
20260507174825 70 51 2.0 12.0 0.00 0.00 0.00 76 951.7
20260507174324 70 44 3.0 12.0 0.00 0.00 0.00 76 951.6
20260507173823 69 41 3.0 12.0 0.00 0.00 0.00 75 951.6
20260507173321 69 38 4.0 12.0 0.00 0.00 0.00 75 951.4
20260507172820 69 43 2.0 12.0 0.00 0.00 0.00 77 951.2
20260507171802 68 47 3.0 12.0 0.00 0.00 0.00 78 951.1
20260507171301 68 38 4.0 12.0 0.00 0.00 0.00 77 950.9
20260507170800 67 43 3.0 12.0 0.00 0.00 0.00 78 951.1
20260507165743 67 27 4.0 12.0 0.00 0.00 0.00 77 950.6
20260507164726 66 25 3.0 12.0 0.00 0.00 0.00 76 950.8
20260507164225 66 25 4.0 12.0 0.00 0.00 0.00 77 950.6
20260507163724 65 28 4.0 12.0 0.00 0.00 0.00 77 950.6
20260507163223 64 22 4.0 12.0 0.00 0.00 0.00 78 950.2
20260507162722 64 29 3.0 12.0 0.00 0.00 0.00 80 950.4
20260507162221 64 31 3.0 12.0 0.00 0.00 0.00 80 950.2
20260507161720 64 37 4.0 12.0 0.00 0.00 0.00 79 950.1
20260507161218 64 28 4.0 12.0 0.00 0.00 0.00 79 950.1
20260507160717 64 23 3.0 12.0 0.00 0.00 0.00 79 950.0
20260507160216 64 18 3.0 12.0 0.00 0.00 0.00 79 950.1
20260507155715 64 21 3.0 12.0 0.00 0.00 0.00 80 949.9
20260507155214 64 27 3.0 12.0 0.00 0.00 0.00 80 949.9
20260507154713 64 24 4.0 12.0 0.00 0.00 0.00 81 949.9
20260507153656 64 22 4.0 12.0 0.00 0.00 0.00 83 950.1
20260507153154 64 24 4.0 12.0 0.00 0.00 0.00 83 950.1
20260507152653 64 20 4.0 12.0 0.00 0.00 0.00 84 950.1
20260507151636 64 18 4.0 12.0 0.00 0.00 0.00 85 949.8
20260507145602 64 23 4.0 12.0 0.00 0.00 0.00 83 950.0
20260507145101 64 20 5.0 12.0 0.00 0.00 0.00 81 950.2
20260507144044 64 22 5.0 11.0 0.00 0.00 0.00 81 950.0
20260507143542 64 25 3.0 11.0 0.00 0.00 0.00 80 949.8
20260507142525 64 18 5.0 11.0 0.00 0.00 0.00 80 949.8
20260507141508 64 18 4.0 11.0 0.00 0.00 0.00 81 949.7
20260507140450 64 22 4.0 11.0 0.00 0.00 0.00 81 949.6
20260507135949 64 25 4.0 11.0 0.00 0.00 0.00 81 949.5
20260507134932 64 22 4.0 11.0 0.00 0.00 0.00 82 949.7
20260507134431 64 24 4.0 11.0 0.00 0.00 0.00 82 949.5
20260507133929 64 17 3.0 11.0 0.00 0.00 0.00 81 949.7
20260507133428 64 22 3.0 11.0 0.00 0.00 0.00 81 949.7
20260507132927 64 21 4.0 11.0 0.00 0.00 0.00 81 949.7
20260507131910 64 348 1.0 11.0 0.00 0.00 0.00 80 950.1
20260507130853 64 351 2.0 11.0 0.00 0.00 0.00 80 950.2
20260507130352 64 42 1.0 11.0 0.00 0.00 0.00 79 949.9
20260507125851 64 13 2.0 11.0 0.00 0.00 0.00 79 949.6
20260507125350 64 29 3.0 11.0 0.00 0.00 0.00 77 949.4
20260507124849 64 8 3.0 11.0 0.00 0.00 0.00 77 949.9
20260507124348 64 20 3.0 11.0 0.00 0.00 0.00 78 949.6
20260507123846 64 23 3.0 11.0 0.00 0.00 0.00 78 949.6
20260507123345 64 25 4.0 11.0 0.00 0.00 0.00 79 949.6
20260507122844 64 26 5.0 11.0 0.00 0.00 0.00 79 949.6
20260507122343 64 24 5.0 11.0 0.00 0.00 0.00 80 950.0
20260507121841 64 26 6.0 11.0 0.00 0.00 0.00 80 949.7
20260507120824 63 16 4.0 11.0 0.00 0.00 0.00 81 949.7
20260507120323 64 20 3.0 11.0 0.00 0.00 0.00 81 949.7
20260507115822 64 32 4.0 11.0 0.00 0.00 0.00 80 950.0
20260507115321 64 30 5.0 11.0 0.00 0.00 0.00 78 950.0
20260507114820 64 22 4.0 11.0 0.00 0.00 0.00 78 949.7
20260507114319 64 24 4.0 11.0 0.00 0.00 0.00 79 950.0
20260507113302 64 12 3.0 11.0 0.00 0.00 0.00 78 950.0
20260507112245 63 37 1.0 11.0 0.00 0.00 0.00 80 950.3
20260507111744 63 338 1.0 11.0 0.00 0.00 0.00 81 950.5
20260507111243 63 336 1.0 11.0 0.00 0.00 0.00 83 950.8
20260507105709 64 29 0.0 11.0 0.00 0.00 0.00 83 950.6
20260507105208 64 74 1.0 11.0 0.00 0.00 0.00 83 950.9
20260507104707 64 20 2.0 11.0 0.00 0.00 0.00 83 950.9
20260507103650 65 10 2.0 11.0 0.00 0.00 0.00 81 950.5
20260507103149 65 21 2.0 11.0 0.00 0.00 0.00 81 950.9
20260507102648 65 114 1.0 11.0 0.00 0.00 0.00 82 950.8
20260507102146 65 0 3.0 11.0 0.00 0.00 0.00 82 950.8
20260507101645 65 6 3.0 11.0 0.00 0.00 0.00 82 950.6
20260507101144 65 359 2.0 11.0 0.00 0.00 0.00 83 951.1
20260507100127 65 324 2.0 11.0 0.00 0.00 0.00 81 951.1
20260507095626 65 340 2.0 11.0 0.00 0.00 0.00 82 950.8
20260507095125 65 3 2.0 11.0 0.00 0.00 0.00 82 950.7
20260507094624 65 12 3.0 11.0 0.00 0.00 0.00 82 951.0
20260507094122 65 28 3.0 11.0 0.00 0.00 0.00 81 950.7
20260507093621 65 23 5.0 14.0 0.00 0.00 0.00 81 950.7
20260507092048 66 17 4.0 14.0 0.00 0.00 0.00 74 950.9
20260507091547 66 24 5.0 14.0 0.00 0.00 0.00 73 950.7
20260507091046 66 20 5.0 14.0 0.00 0.00 0.00 72 950.8
20260507090029 66 17 4.0 12.0 0.00 0.00 0.00 73 951.0
20260507085528 66 25 5.0 12.0 0.00 0.00 0.00 74 950.6
20260507085027 66 24 5.0 12.0 0.00 0.00 0.00 72 950.8
20260507084526 66 15 5.0 12.0 0.00 0.00 0.00 72 951.2
20260507084025 66 14 4.0 12.0 0.00 0.00 0.00 72 951.3
20260507082452 65 28 5.0 12.0 0.00 0.00 0.00 71 950.8
20260507081435 65 20 3.0 12.0 0.00 0.00 0.00 69 951.0
20260507080935 66 28 2.0 12.0 0.00 0.00 0.00 68 951.2
20260507080433 66 40 3.0 12.0 0.00 0.00 0.00 68 951.0
20260507075417 67 26 2.0 12.0 0.00 0.00 0.00 66 951.0
20260507074915 67 30 3.0 12.0 0.00 0.00 0.00 66 951.2
20260507074414 67 16 2.0 12.0 0.00 0.00 0.00 67 951.0
20260507073913 67 9 2.0 12.0 0.00 0.00 0.00 67 950.9